Regional Weather Roundup
Issued by NWS

Home | Current Version | Previous Version | Graphics & Text | Print | Product List | Glossary On
Versions: 1 2 3 4 5 6 7 8 9 10 11 12 13 14 15 16 17 18 19 20 21 22 23 24 25 26 27 28 29 30 31 32 33 34 35 36 37 38 39 40 41 42 43 44 45 46 47 48 49 50
000
ASUS43 KLSX 230359
RWRMO

WEATHER SUMMARY FOR MISSOURI
NATIONAL WEATHER SERVICE SPRINGFIELD MO
1100 PM CDT FRI MAY 22 2015

NOTE: "FAIR" INDICATES FEW OR NO CLOUDS BELOW 12,000 FEET WITH NO
       SIGNIFICANT WEATHER AND/OR OBSTRUCTIONS TO VISIBILITY.
       CURRENT SKY AND/OR WEATHER CONDITIONS ARE NOT AVAILABLE FOR
       CHILLICOTHE AND FARMINGTON.

MOZ001>031-035>038-043-044-053-054-230500-
...NORTHERN AND WESTERN MISSOURI...

CITY           SKY/WX    TMP DP  RH WIND       PRES   REMARKS
KANSAS CTY INT CLOUDY    60  51  72 SE7       30.21R
KANSAS C DTWN  CLOUDY    63  50  62 SE5       30.21R
LEE`S SUMMIT   CLOUDY    61  51  70 SE7       30.22R
ST JOSEPH      CLOUDY    60  50  69 CALM      30.22R
KIRKSVILLE     CLOUDY    56  54  93 CALM      30.25R

$$
MOZ066>068-077>081-088>096-101>105-230500-
...SOUTHWEST MISSOURI...

CITY           SKY/WX    TMP DP  RH WIND       PRES   REMARKS
SPRINGFIELD    CLOUDY    61  49  64 SE12      30.22R
JOPLIN         CLOUDY    61  50  67 E8        30.21R

$$
MOZ032>034-039>042-045>050-055>058-069>072-230500-
...CENTRAL MISSOURI...

CITY           SKY/WX    TMP DP  RH WIND       PRES   REMARKS
COLUMBIA       CLOUDY    63  53  70 E6        30.24F
JEFFERSON CITY CLOUDY    63  53  70 SE5       30.24S
ROLLA          CLOUDY    61  54  77 E3        30.24S
SEDALIA        CLOUDY    63  54  72 SE7       30.24S
OSAGE BEACH    CLOUDY    63  52  67 CALM      30.24S

$$
MOZ051-052-059>065-230500-
...EAST CENTRAL MISSOURI...

CITY           SKY/WX    TMP DP  RH WIND       PRES   REMARKS
ST LOUIS INTL  CLOUDY    67  51  56 CALM      30.26S
SPIRIT OF STL  CLOUDY    61  58  90 CALM      30.25S
ST CHARLES     CLOUDY    63  55  75 CALM      30.26R

$$
MOZ072>076-082>087-097>100-106>115-230500-
...SOUTH CENTRAL AND SOUTHEAST MISSOURI...

CITY           SKY/WX    TMP DP  RH WIND       PRES   REMARKS
CAPE GIRARDEAU MOCLDY    60  58  92 E3        30.27S
FARMINGTON     CLOUDY    61  54  77 E3        30.30S
POPLAR BLUFF   PTCLDY    59  56  89 E3        30.24F
WEST PLAINS    CLOUDY    60  47  61 SE5       30.26R

$$



USA.gov is the U.S. government's official web portal to all federal, state and local government web resources and services.